FLOCK 3P-66 (42027 NORAD) Tracking and Keplerian Element Data

This shows tracking and keplerian element data for the satellite.

Feedback or suggestion? Click here.




ElementValue
Catalog42027
NameFLOCK 3P-66
Epoch Orbit17367
Epoch Day91.66754178
Epoch Year2020
RAAN160.4669
Inclination97.3718
Eccentricity0.000694
Argument of Perigee215.2306
Mean Anonmoly144.8475
Mean Motion15.26128873
Decay Rate1.731E-05
L11 42027U 17008CH 20091.66754178 .00001731 00000-0 69831-4 0 9990
L22 42027 97.3718 160.4669 0006940 215.2306 144.8475 15.26128873173672

Live tracking and technical data element details for FLOCK 3P-66 (NORAD 42027). FLOCK 3P-66 can be tracked NOW for your location showing map with azimuth and elevation plus other details from your city location.

Track the satellite on the map from your city or location and see movement details for azimuth, elevation, latitude, longitude, range, height, and movement on the map or in text.







IsCatalogInMostPopularTable: catalog: 42027, numindb: 340
Update: records affected: 1



GetName: 42027 FLOCK 3P-66

Hit Count: updated at: Thu, 02 Apr 2020 03:45:33 GMT